Temperature
16 16 16 16 16 16 17 17 17 18 18 18 17 17 16 16 16 16 16 16 16 16 16 16 16 16 15 15 15 15 15 15 15 15 15 15 15 15
16 15 16 16 16 16 16 16 16 17 17 18 17 17 16 16 16 16 16 16 16 16 16 16 16 16 15 15 15 15 15 15 15 15 15 15 15 14
15 15 15 15 15 16 16 16 16 16 16 17 16 16 15 15 15 15 15 15 15 16 15 16 15 15 15 15 15 15 15 15 15 15 15 14 14 14
15 15 15 15 15 15 15 15 15 15 15 15 16 15 15 15 15 15 15 15 15 15 15 15 15 15 15 15 15 15 14 14 14 14 14 14 14 14
15 15 15 15 15 15 15 15 15 15 15 15 15 15 14 14 14 14 14 14 14 14 14 14 14 14 14 14 14 14 14 14 14 14 14 14 14 14
14 14 14 14 14 14 14 14 14 14 14 14 14 14 14 13 13 13 13 13 13 13 13 13 13 13 13 13 13 13 13 13 13 13 13 13 13 13
14 14 14 14 14 14 14 14 14 14 14 13 13 13 13 12 12 12 12 12 12 12 12 12 12 12 12 12 12 12 12 12 12 12 12 12 12 12
14 13 13 13 13 13 13 13 13 13 13 12 12 12 11 11 11 11 11 11 11 11 11 11 11 11 11 11 11 11 11 11 11 11 11 11 11 11
13 12 12 12 12 12 12 12 12 12 12 11 11 10 10 10 10 10 10 10 10 10 10 10 10 10 10 10 10 10 10 10 10 10 10 10 10 10
12 12 11 11 11 11 11 11 11 11 11 10 10 10 9 9 9 9 9 9 9 9 9 9 9 9 9 9 9 8 8 8 8 9 9 9 9 9
11 11 10 10 10 10 10 10 9 9 9 9 9 9 8 8 8 8 8 9 9 9 8 8 8 8 8 8 8 8 7 7 7 8 8 8 8 8
10 9 9 9 9 9 9 8 8 8 8 7 7 7 7 7 7 7 7 7 8 8 7 7 7 7 7 8 7 7 7 6 6 6 6 7 7 7
9 8 8 8 8 8 8 8 8 7 7 7 7 7 6 6 6 6 6 6 6 6 6 5 5 6 6 6 7 7 6 6 6 6 6 5 5 5
8 8 7 7 7 7 7 7 7 6 6 6 6 6 6 5 5 5 5 5 5 4 4 4 4 4 4 5 6 6 6 5 5 5 5 5 5 5
7 7 7 7 6 6 6 6 6 6 6 6 6 5 5 4 4 4 4 4 4 4 4 3 3 3 3 4 5 5 5 5 5 4 4 4 4 4
6 6 6 6 5 5 5 5 5 5 5 5 5 5 4 4 4 4 4 4 5 5 4 3 3 3 3 3 4 4 4 4 4 4 4 3 4 4
6 6 6 6 5 5 5 4 4 4 4 4 4 4 4 4 4 4 3 4 4 4 4 4 3 3 3 3 4 4 4 4 3 3 3 3 3 3
6 6 6 5 5 5 5 5 4 4 4 4 4 4 4 3 3 3 3 3 3 3 3 3 3 3 3 4 3 3 3 3 3 3 2 3 3 3
6 5 5 5 5 5 4 4 4 3 3 3 3 3 3 3 3 3 3 3 3 3 3 3 3 3 3 3 3 3 2 2 2 2 2 2 3 3
5 5 5 4 4 4 4 4 3 3 3 3 3 3 2 3 3 3 3 2 2 2 3 3 3 2 2 2 2 2 2 2 2 2 2 2 2 3
5 5 4 4 4 3 3 3 3 3 2 2 2 2 2 2 2 2 2 2 2 2 2 2 2 1 2 2 2 3 3 2 2 2 2 2 2 2
4 4 4 3 3 3 2 2 2 2 2 2 2 2 2 2 2 2 2 2 2 2 2 2 2 2 2 2 2 2 2 2 2 2 2 2 1 1
4 4 3 3 3 2 2 2 2 2 2 1 1 1 1 1 1 1 1 1 1 1 1 2 2 2 2 2 2 2 2 2 2 2 2 2 2 1
Wind_Speed
7 7 6 5 4 5 5 5 6 6 4 4 4 2 2 3 1 5 5 5 7 8 9 9 10 10 11 11 11 12 12 13 13 13 14 14 15 15
5 4 5 5 4 4 5 4 5 6 6 3 2 1 1 3 2 4 5 4 5 6 6 7 8 9 9 10 10 11 11 12 12 13 13 14 15 15
6 6 6 5 4 4 5 5 5 6 6 6 3 1 1 4 2 3 4 4 3 5 4 4 5 7 7 8 9 9 10 11 11 12 13 13 14 15
6 6 6 5 4 5 4 5 5 4 6 7 4 3 2 2 3 4 3 4 2 6 5 2 2 3 4 5 5 6 7 8 9 10 11 12 12 14
5 5 4 3 3 3 4 4 4 4 4 5 5 2 2 2 3 3 3 3 4 3 5 4 2 1 1 1 2 3 4 5 7 8 9 11 12 12
2 2 1 1 1 2 3 3 4 4 3 4 4 2 2 2 3 4 4 3 4 5 4 2 2 2 2 2 2 2 4 5 6 7 9 10 11 12
3 3 4 7 9 5 3 2 2 2 2 2 2 2 2 3 3 4 4 4 3 3 4 4 3 3 2 2 3 6 6 7 7 8 10 11 12 13
5 5 6 8 10 12 13 13 10 4 2 2 2 3 4 5 5 5 5 5 4 4 5 5 4 4 4 3 6 6 7 7 9 10 11 12 13 14
6 6 6 6 7 7 10 11 13 13 10 5 5 5 4 5 6 5 5 6 5 5 6 6 4 5 5 3 3 3 5 7 10 11 12 13 15 16
8 7 7 7 7 6 8 9 10 10 10 8 7 7 7 7 6 5 5 4 4 2 4 6 6 6 7 7 3 1 4 7 10 11 13 14 16 18
9 9 8 8 9 6 8 8 8 8 13 14 12 9 10 10 10 6 6 6 5 4 4 6 7 8 8 7 3 4 6 8 9 11 13 15 17 18
9 10 14 12 11 9 7 7 7 6 5 5 5 4 5 6 6 7 7 7 7 6 5 7 8 9 8 6 7 9 9 9 9 11 12 14 15 15
9 8 9 13 13 13 10 8 6 3 3 3 3 3 4 4 6 8 8 7 7 7 7 8 9 9 9 10 11 10 10 11 12 12 11 10 11 12
9 9 10 13 14 12 10 6 3 3 3 3 4 5 5 6 6 7 7 7 6 7 7 8 8 9 11 12 12 11 11 11 11 11 12 11 12 12
11 13 11 10 10 10 8 3 3 4 5 5 5 5 5 6 6 5 5 6 7 7 6 7 9 9 10 11 12 12 12 11 10 10 11 12 12 12
12 11 9 7 6 6 4 3 5 6 6 5 5 5 5 5 6 6 7 7 7 6 5 7 8 9 10 12 11 11 11 10 11 11 11 12 13 13
7 6 5 5 5 5 5 5 5 5 5 6 5 6 6 6 6 7 7 8 8 8 8 7 9 10 10 11 11 10 10 11 11 11 12 12 12 11
3 6 6 5 5 5 4 4 5 6 6 6 6 7 7 7 7 7 7 8 8 9 9 9 10 10 10 8 5 10 11 11 11 11 12 12 12 11
4 6 6 5 5 4 4 5 5 6 5 6 6 6 7 7 7 8 8 8 9 9 9 9 9 9 12 12 10 7 11 12 12 12 11 12 13 12
6 6 5 5 4 5 5 5 5 5 6 6 6 7 7 7 8 8 8 9 10 10 10 10 9 10 11 12 13 13 10 10 11 12 13 12 12 11
5 5 5 5 5 5 5 5 5 5 6 7 6 7 7 8 8 9 9 9 9 10 11 11 10 11 11 10 11 11 10 9 10 11 13 13 12 12
5 5 5 5 4 4 4 5 5 5 6 6 7 7 7 8 8 9 9 10 10 10 12 11 11 11 10 11 12 12 12 12 11 10 10 10 9 11
4 4 3 3 4 4 4 5 6 6 6 7 7 7 8 8 8 9 9 9 10 11 12 12 11 11 11 11 12 12 14 14 12 10 8 6 10 13
Wind_Direction
215 211 229 223 231 247 256 266 275 275 255 211 226 198 246 254 231 246 246 204 217 231 238 241 242 244 246 249 252 254 255 256 257 258 259 259 259 259
226 223 231 236 233 242 252 258 269 276 279 275 249 272 332 289 191 253 251 186 208 221 234 241 243 244 248 250 253 255 257 259 261 262 263 263 264 263
212 212 222 249 248 248 247 251 255 259 265 268 256 247 271 293 311 281 262 249 213 181 207 239 248 250 253 255 257 260 263 265 267 267 267 267 267 267
211 214 222 222 231 259 262 258 258 268 270 277 279 276 261 284 294 286 285 273 283 136 149 179 232 251 258 261 267 273 276 278 278 279 279 278 277 276
205 208 217 222 232 249 257 263 262 256 265 274 276 297 287 326 311 294 294 321 299 160 159 170 173 201 253 275 295 304 308 306 302 299 296 294 291 286
184 183 194 215 253 269 261 272 276 277 271 270 278 288 300 330 321 318 314 327 318 326 354 356 130 158 149 116 62 21 357 343 335 329 322 315 308 302
121 103 84 71 55 39 12 343 306 288 288 284 294 305 345 350 344 327 319 317 318 339 328 325 327 320 318 148 85 47 28 10 356 346 337 329 321 313
118 109 99 87 82 73 65 55 40 29 14 6 23 34 25 8 353 337 330 319 315 1 330 318 328 323 326 342 59 44 17 1 352 344 335 329 322 315
106 101 95 88 90 93 85 79 63 53 45 44 59 42 28 12 349 344 352 338 332 333 325 312 318 316 316 340 68 22 356 345 339 333 328 323 318 314
91 93 94 83 71 79 86 76 66 53 49 54 58 44 34 10 348 333 324 305 283 319 345 314 323 321 319 309 186 191 318 320 321 322 320 318 315 309
81 77 88 89 60 60 86 85 81 79 77 76 72 69 57 38 11 348 343 325 322 330 3 326 320 318 307 296 261 224 276 285 294 301 305 306 306 304
90 80 70 73 61 52 82 85 81 70 64 74 78 75 51 48 30 10 351 335 327 325 12 337 322 326 313 306 318 310 300 292 284 284 289 294 301 304
100 88 77 70 65 57 63 71 61 36 60 53 49 38 31 23 17 16 3 344 335 327 344 335 321 319 309 307 310 310 312 315 312 307 296 293 293 295
99 97 94 85 77 67 68 54 355 319 43 36 30 23 14 10 7 358 352 339 324 311 316 322 315 317 312 308 311 315 316 315 313 313 314 312 297 282
95 97 104 113 113 89 75 22 359 37 37 31 24 17 7 1 341 336 331 320 297 291 312 323 315 315 310 307 310 313 315 317 316 317 316 315 314 309
110 115 115 99 104 107 114 64 51 41 22 23 15 6 354 348 345 346 339 333 324 322 326 314 306 307 306 309 307 309 313 314 316 316 316 310 307 305
124 125 117 106 89 77 69 55 42 35 24 16 6 358 353 350 348 347 339 330 330 330 329 328 322 311 302 299 305 311 315 316 318 320 314 308 307 307
129 105 95 86 77 68 59 53 42 31 16 7 4 359 353 347 344 343 340 337 333 330 329 328 326 321 316 312 311 317 318 320 319 317 311 309 310 312
106 93 87 79 69 58 46 38 32 29 7 0 1 356 348 343 341 339 338 338 334 329 326 325 326 327 323 321 322 319 317 315 315 315 315 313 311 314
89 88 83 75 63 47 37 28 19 14 7 357 355 351 346 340 339 338 336 341 331 325 324 328 334 334 323 314 310 311 309 312 317 316 315 312 307 303
84 80 72 64 54 43 31 17 9 6 4 346 352 349 343 339 339 336 332 336 321 322 327 328 331 313 301 302 304 312 321 313 299 303 312 314 316 317
78 75 66 55 47 33 21 8 360 1 357 348 351 344 341 337 335 332 332 331 328 328 326 322 321 319 318 316 315 318 321 321 311 286 279 281 309 318
70 65 65 58 46 29 17 3 356 0 358 350 345 340 338 336 331 329 330 329 330 329 327 325 326 325 323 320 320 322 325 326 326 325 318 279 258 264
Height
1565 1566 1567 1568 1569 1570 1571 1571 1572 1571 1570 1570 1571 1570 1570 1570 1569 1569 1569 1568 1568 1568 1568 1568 1568 1568 1568 1568 1568 1568 1567 1567 1567 1566 1566 1565 1565 1565
1562 1563 1564 1566 1567 1568 1568 1568 1569 1569 1568 1568 1568 1568 1567 1567 1566 1566 1566 1565 1564 1564 1564 1564 1564 1564 1564 1564 1564 1563 1563 1562 1562 1562 1561 1561 1560 1560
1560 1561 1562 1563 1564 1565 1565 1566 1566 1566 1566 1566 1565 1565 1563 1563 1563 1563 1563 1562 1561 1560 1560 1560 1560 1559 1559 1559 1559 1558 1558 1557 1557 1556 1556 1555 1555 1554
1557 1558 1559 1560 1561 1561 1562 1562 1563 1563 1563 1562 1562 1562 1561 1560 1559 1559 1559 1559 1558 1556 1556 1555 1555 1554 1554 1554 1553 1553 1552 1552 1551 1550 1550 1549 1549 1548
1554 1555 1556 1557 1558 1559 1559 1559 1560 1560 1559 1559 1559 1558 1558 1557 1556 1556 1556 1555 1555 1554 1552 1551 1550 1549 1549 1548 1548 1547 1546 1545 1545 1544 1543 1542 1542 1541
1551 1552 1553 1554 1555 1555 1556 1556 1556 1556 1556 1556 1556 1556 1555 1554 1553 1553 1552 1551 1551 1550 1548 1547 1546 1544 1543 1543 1542 1541 1540 1539 1538 1537 1536 1535 1534 1533
1549 1550 1550 1551 1552 1553 1553 1553 1553 1553 1553 1553 1553 1553 1552 1551 1550 1549 1549 1548 1546 1545 1544 1543 1542 1541 1540 1538 1536 1535 1534 1533 1532 1530 1529 1528 1527 1526
1546 1547 1548 1549 1549 1550 1550 1550 1551 1550 1550 1551 1550 1550 1549 1548 1546 1546 1546 1545 1544 1542 1541 1540 1538 1537 1536 1534 1531 1530 1528 1527 1525 1524 1522 1521 1519 1518
1543 1545 1546 1547 1548 1548 1548 1548 1548 1548 1548 1548 1548 1547 1546 1545 1544 1544 1543 1542 1540 1539 1538 1537 1535 1534 1532 1530 1527 1525 1523 1521 1520 1518 1516 1514 1512 1510
1541 1542 1544 1545 1546 1546 1547 1547 1547 1546 1546 1546 1546 1545 1544 1543 1542 1542 1540 1539 1538 1536 1535 1534 1532 1530 1528 1526 1522 1520 1518 1516 1513 1511 1509 1507 1505 1503
1540 1541 1542 1543 1544 1545 1546 1546 1545 1545 1545 1544 1544 1543 1542 1541 1540 1540 1539 1538 1537 1535 1533 1531 1529 1527 1524 1522 1520 1516 1513 1511 1508 1506 1503 1501 1498 1496
1539 1541 1542 1543 1544 1545 1545 1545 1545 1545 1545 1545 1544 1543 1542 1540 1539 1538 1537 1537 1535 1534 1530 1528 1527 1524 1521 1519 1517 1514 1511 1507 1504 1501 1498 1495 1493 1490
1540 1541 1542 1543 1544 1545 1545 1545 1545 1545 1546 1546 1545 1544 1543 1541 1539 1537 1535 1534 1533 1531 1529 1526 1524 1522 1520 1516 1513 1510 1507 1504 1501 1497 1494 1491 1488 1485
1541 1542 1543 1544 1545 1546 1546 1546 1546 1546 1547 1546 1545 1544 1543 1541 1538 1536 1533 1531 1529 1528 1525 1523 1521 1519 1516 1512 1509 1506 1503 1500 1497 1493 1490 1487 1484 1481
1542 1544 1545 1545 1546 1547 1547 1546 1547 1547 1547 1546 1545 1544 1542 1539 1537 1535 1533 1530 1527 1526 1524 1520 1518 1516 1513 1510 1506 1503 1499 1496 1493 1490 1486 1483 1480 1477
1544 1545 1546 1547 1548 1548 1548 1549 1548 1547 1546 1546 1545 1543 1541 1539 1537 1535 1532 1530 1528 1526 1523 1519 1516 1513 1511 1507 1504 1500 1497 1493 1490 1486 1482 1478 1475 1472
1547 1549 1550 1551 1551 1551 1550 1550 1549 1548 1547 1546 1544 1543 1541 1539 1537 1534 1531 1529 1527 1524 1521 1518 1515 1512 1508 1505 1501 1498 1494 1491 1487 1483 1478 1474 1471 1468
1550 1551 1552 1552 1552 1552 1552 1551 1550 1549 1547 1546 1544 1542 1540 1538 1536 1533 1531 1528 1525 1522 1519 1516 1513 1509 1506 1503 1500 1496 1492 1488 1484 1480 1475 1471 1467 1464
1553 1553 1553 1553 1554 1553 1553 1552 1551 1549 1547 1546 1544 1542 1540 1537 1535 1532 1530 1527 1524 1521 1518 1515 1511 1507 1504 1500 1497 1494 1489 1485 1481 1477 1473 1468 1463 1459
1554 1554 1554 1554 1554 1554 1553 1552 1551 1549 1547 1545 1544 1541 1539 1537 1534 1532 1529 1526 1523 1520 1516 1513 1510 1506 1503 1499 1494 1490 1487 1482 1478 1474 1469 1465 1460 1456
1556 1556 1556 1555 1555 1554 1553 1551 1550 1549 1546 1545 1543 1540 1538 1536 1533 1531 1528 1525 1521 1518 1515 1512 1508 1504 1500 1496 1492 1487 1484 1480 1475 1471 1466 1462 1457 1453
1556 1556 1556 1555 1554 1553 1552 1551 1550 1548 1546 1544 1542 1540 1537 1535 1532 1530 1527 1524 1521 1517 1513 1510 1506 1502 1498 1494 1489 1485 1480 1477 1472 1468 1464 1460 1456 1451
1557 1557 1556 1555 1554 1553 1552 1551 1549 1548 1545 1543 1541 1539 1537 1534 1531 1529 1526 1523 1519 1516 1512 1508 1504 1500 1496 1492 1488 1483 1478 1474 1470 1465 1462 1458 1454 1449